TimeCDT,TemperatureF,Dew PointF,Humidity,Sea Level PressureIn,VisibilityMPH,Wind Direction,Wind SpeedMPH,Gust SpeedMPH,PrecipitationIn,Events,Conditions,WindDirDegrees,DateUTC
12:53 AM,75.0,73.0,94,30.03,10.0,South,4.6,-,N/A,,Clear,180,2013-06-12 05:53:00
1:53 AM,75.0,73.0,94,30.02,9.0,South,4.6,-,N/A,,Clear,180,2013-06-12 06:53:00
2:53 AM,75.0,73.0,94,30.02,8.0,South,4.6,-,N/A,,Clear,180,2013-06-12 07:53:00
3:53 AM,73.9,71.1,91,30.01,9.0,South,6.9,-,N/A,,Clear,190,2013-06-12 08:53:00
4:53 AM,75.0,72.0,90,30.02,9.0,South,6.9,-,N/A,,Clear,190,2013-06-12 09:53:00
5:53 AM,75.9,73.0,91,30.04,9.0,SSW,5.8,-,N/A,,Clear,210,2013-06-12 10:53:00
6:53 AM,77.0,73.9,90,30.06,8.0,South,4.6,-,N/A,,Clear,180,2013-06-12 11:53:00
7:53 AM,82.0,75.0,79,30.07,9.0,WSW,9.2,-,N/A,,Clear,250,2013-06-12 12:53:00
8:53 AM,84.9,75.0,72,30.08,10.0,WSW,13.8,18.4,N/A,,Clear,250,2013-06-12 13:53:00
9:53 AM,88.0,75.0,65,30.08,10.0,SW,10.4,-,N/A,,Clear,230,2013-06-12 14:53:00
10:53 AM,89.1,75.0,63,30.09,10.0,WSW,10.4,-,N/A,,Partly Cloudy,250,2013-06-12 15:53:00
11:53 AM,91.0,73.9,57,30.09,10.0,SW,10.4,19.6,N/A,,Mostly Cloudy,230,2013-06-12 16:53:00
12:53 PM,91.0,73.0,55,30.07,10.0,West,10.4,-,N/A,,Clear,260,2013-06-12 17:53:00
1:53 PM,93.0,73.0,52,30.06,10.0,SSW,13.8,-,N/A,,Scattered Clouds,210,2013-06-12 18:53:00
2:53 PM,93.0,73.0,52,30.04,10.0,SW,9.2,-,N/A,,Partly Cloudy,230,2013-06-12 19:53:00
3:53 PM,93.9,70.0,46,30.01,10.0,SW,10.4,-,N/A,,Clear,230,2013-06-12 20:53:00
4:53 PM,93.9,69.1,44,30.00,10.0,SW,12.7,-,N/A,,Partly Cloudy,230,2013-06-12 21:53:00
5:53 PM,93.0,71.1,49,29.98,10.0,SW,11.5,-,N/A,,Partly Cloudy,230,2013-06-12 22:53:00
6:53 PM,91.0,71.1,52,29.98,10.0,SW,10.4,-,N/A,,Scattered Clouds,230,2013-06-12 23:53:00
7:53 PM,87.1,72.0,61,29.98,10.0,SW,6.9,-,N/A,,Clear,220,2013-06-13 00:53:00
8:53 PM,84.0,72.0,67,29.98,10.0,SW,5.8,-,N/A,,Clear,220,2013-06-13 01:53:00
9:53 PM,82.0,72.0,71,29.99,10.0,SW,5.8,-,N/A,,Clear,220,2013-06-13 02:53:00
10:53 PM,77.0,72.0,84,29.99,10.0,SSW,5.8,-,N/A,,Clear,200,2013-06-13 03:53:00
11:53 PM,75.9,72.0,87,30.00,10.0,SSW,3.5,-,N/A,,Clear,200,2013-06-13 04:53:00